Location: Izdebno
(52.6670°N, 16.2170°E)
Time: 23:04:25
(UTC+02:00)

Vanguard 2 Rocket - Pass Details

Date: 01 March 2024
Orbit: 555 x 3307 km, 32.9° (Epoch: 21 April)

Event Time Altitude Azimuth Distance (km) Brightness Sun altitude
Rises 18:19:24 0° 260° (W) 5,266 13.1 -7.5°
Reaches altitude 10° 18:23:59 10° 243° (WSW) 4,731 11.7 -8.2°
Maximum altitude 18:32:31 19° 206° (SSW) 4,717 10.8 -9.5°
Drops below altitude 10° 18:43:10 10° 170° (S) 6,036 10.9 -11.1°
Sets 18:50:28 0° 156° (SSE) 7,253 11.2 -12.2°
